This is the latest recevied weather packets stored in our database for station/object AA7VG. If no packets are shown the sender has not sent any weather packets the latest 10 day(s).
| Time | Temp. | Humidity | Pressure | Rain* | Wind** | Luminosity | Snow |
|---|---|---|---|---|---|---|---|
| 1788522562 | 13.33° C | 52% | 1006.1 hPa | 0 mm | - | - | - |
| 1788522256 | 13.33° C | 51% | 1006.2 hPa | 0 mm | - | - | - |
| 1788521952 | 13.89° C | 50% | 1006.3 hPa | 0 mm | - | - | - |
| 1788521652 | 13.89° C | 50% | 1006.1 hPa | 0 mm | - | - | - |
| 1788521351 | 14.44° C | 48% | 1006.1 hPa | 0 mm | - | - | - |
| 1788521047 | 14.44° C | 47% | 1006.1 hPa | 0 mm | - | - | - |
| 1788520770 | 14.44° C | 47% | 1005.7 hPa | 0 mm | - | - | - |
| 1788520438 | 14.44° C | 46% | 1005.4 hPa | 0 mm | - | - | - |
| 1788520133 | 13.89° C | 49% | 1005.6 hPa | 0 mm | - | - | - |
| 1788519832 | 13.89° C | 50% | 1005.8 hPa | 0 mm | - | - | - |
| 1788519528 | 13.89° C | 52% | 1005.8 hPa | 0 mm | - | - | - |
| 1788519228 | 13.89° C | 50% | 1006 hPa | 0 mm | - | - | - |
| 1788518923 | 13.89° C | 49% | 1006.1 hPa | 0 mm | - | - | - |
| 1788518618 | 14.44° C | 49% | 1006.1 hPa | 0 mm | - | - | - |
| 1788518315 | 15° C | 46% | 1006 hPa | 0 mm | - | - | - |
| 1788518015 | 15° C | 45% | 1006 hPa | 0 mm | - | - | - |
| 1788517711 | 15° C | 44% | 1006.1 hPa | 0 mm | - | - | - |
| 1788517406 | 14.44° C | 45% | 1006.1 hPa | 0 mm | - | - | - |
| 1788517102 | 15° C | 46% | 1006 hPa | 0 mm | - | - | - |
| 1788516798 | 14.44° C | 46% | 1006 hPa | 0 mm | - | - | - |
| 1788516494 | 14.44° C | 45% | 1006 hPa | 0 mm | - | - | - |
| 1788516189 | 15° C | 47% | 1006.2 hPa | 0 mm | - | - | - |
| 1788515884 | 15° C | 47% | 1006.2 hPa | 0 mm | - | - | - |
| 1788515578 | 15° C | 46% | 1006.2 hPa | 0 mm | - | - | - |
| 1788515274 | 14.44° C | 45% | 1006.2 hPa | 0 mm | - | - | - |
* Rain latest hour (hover to see other rain measurements)
** Current wind speed in m/s (hover to see current wind gust speed)